Weather History for PASC - March, 2014

Change the Weather History Date:

Saturday, March 8, 2014

  Actual Average Record
Temperature  
Mean Temperature -24 °F -  
Max Temperature -18 °F -7 °F 6 °F (2002)
Min Temperature -29 °F -19 °F -47 °F (1989)
Degree Days  
Heating Degree Days 88    
Moisture  
Dew Point -29 °F    
Average Humidity 76    
Maximum Humidity 78    
Minimum Humidity 73    
Precipitation  
Precipitation 0.00 in - - ()
Sea Level Pressure  
Sea Level Pressure 30.05 in    
Wind  
Wind Speed 9 mph (WSW)    
Max Wind Speed 12 mph    
Max Gust Speed -    
Visibility 9 miles    
Events Snow    
Averages and records for this station are not official NWS values.
T = Trace of Precipitation, MM = Missing Value Source: NWS Daily Summary

Daily Weather History Graph

Daily Weather History Graph

Search for Another Location

Airport or City:

Trip Planner

Search our weather history database for the weather conditions in past years. The results will help you decide how hot, cold, wet, or windy it might be!

Date:

Astronomy

Mar. 08, 2014 Rise Set
Actual Time 7:47 AM AKST 6:23 PM AKST
Civil Twilight 6:46 AM AKST 7:24 PM AKST
Nautical Twilight 5:34 AM AKST 8:37 PM AKST
Astronomical Twilight 4:12 AM AKST 10:01 PM AKST
Moon 8:12 AM AKST (3/8) 5:51 AM AKST (3/8)
Length of Visible Light 12h 38m
Length of Day
10h 35m
First Quarter, 53% of the Moon is Illuminated
Mar 8
First Quarter
Mar 16
Full
Mar 23
Last Quarter
Mar 30
New
Apr 7
First Quarter

Hourly Weather History & Observations

Time (AKST) Temp. Windchill Dew Point Humidity Pressure Visibility Wind Dir Wind Speed Gust Speed Precip Events Conditions
12:53 AM -26.0 °F -49.6 °F -31.0 °F 77% 30.09 in 10.0 mi SW 11.5 mph - N/A   Mostly Cloudy
1:53 AM -26.0 °F -49.6 °F -32.1 °F 73% 30.09 in 10.0 mi WSW 11.5 mph - N/A   Clear
2:53 AM -27.0 °F -49.8 °F -32.1 °F 77% 30.09 in 10.0 mi WSW 10.4 mph - N/A   Mostly Cloudy
3:53 AM -25.1 °F -47.4 °F -29.9 °F 78% 30.08 in 10.0 mi West 10.4 mph - N/A   Overcast
4:53 AM -23.1 °F -42.3 °F -27.9 °F 78% 30.08 in 10.0 mi West 8.1 mph - N/A   Overcast
5:53 AM -20.9 °F -41.0 °F -26.0 °F 77% 30.07 in 10.0 mi West 9.2 mph - N/A   Overcast
6:23 AM -20.2 °F -38.8 °F -25.6 °F 76% 30.06 in 4.0 mi West 8.1 mph - 0.00 in Snow Light Snow
6:32 AM -20.2 °F -38.8 °F -25.6 °F 76% 30.06 in 4.0 mi West 8.1 mph - 0.00 in Snow Light Snow
6:53 AM -20.0 °F -35.3 °F -25.1 °F 78% 30.07 in 6.0 mi WSW 5.8 mph - 0.00 in Snow Light Snow
7:53 AM -20.9 °F -41.0 °F -26.0 °F 77% 30.06 in 7.0 mi WSW 9.2 mph - 0.00 in   Overcast
8:05 AM -22.0 °F -41.0 °F -27.4 °F 76% 30.05 in 6.0 mi WSW 8.1 mph - 0.00 in Snow Light Snow
8:53 AM -20.9 °F -39.7 °F -26.0 °F 77% 30.06 in 9.0 mi WSW 8.1 mph - 0.00 in   Overcast
9:53 AM -20.0 °F -39.9 °F -25.1 °F 78% 30.05 in 4.0 mi West 9.2 mph - 0.00 in Snow Light Snow
10:53 AM -20.0 °F -38.6 °F -25.1 °F 78% 30.06 in 7.0 mi West 8.1 mph - 0.00 in   Mostly Cloudy
11:53 AM -20.9 °F -39.7 °F -27.0 °F 73% 30.05 in 10.0 mi West 8.1 mph - N/A   Partly Cloudy
12:53 PM -22.0 °F -39.4 °F -27.0 °F 77% 30.05 in 10.0 mi West 6.9 mph - N/A   Mostly Cloudy
1:53 PM -18.9 °F -37.2 °F -24.0 °F 78% 30.05 in 10.0 mi WSW 8.1 mph - N/A   Overcast
2:53 PM -20.9 °F -41.0 °F -26.0 °F 77% 30.05 in 10.0 mi West 9.2 mph - N/A   Scattered Clouds
3:53 PM -23.1 °F -42.3 °F -29.0 °F 74% 30.04 in 10.0 mi WSW 8.1 mph - N/A   Scattered Clouds
4:53 PM -25.1 °F -44.7 °F -31.0 °F 74% 30.04 in 10.0 mi WSW 8.1 mph - N/A   Partly Cloudy
5:53 PM -27.0 °F -49.8 °F -32.1 °F 77% 30.04 in 10.0 mi WSW 10.4 mph - N/A   Partly Cloudy
6:33 PM -27.4 °F -50.3 °F -32.8 °F 75% 30.02 in 10.0 mi West 10.4 mph - N/A   Mostly Cloudy
6:53 PM -29.0 °F -52.3 °F -34.1 °F 77% 30.04 in 10.0 mi WSW 10.4 mph - N/A   Scattered Clouds
7:53 PM -29.9 °F -52.1 °F - N/A% 30.04 in 8.0 mi WSW 9.2 mph - N/A   Scattered Clouds
8:53 PM -29.9 °F -52.1 °F - N/A% 30.03 in 10.0 mi WSW 9.2 mph - N/A   Partly Cloudy
9:53 PM -29.0 °F -51.0 °F -34.1 °F 77% 30.02 in 10.0 mi WSW 9.2 mph - N/A   Scattered Clouds
10:53 PM -27.9 °F -48.2 °F -34.1 °F 73% 30.02 in 7.0 mi WSW 8.1 mph - N/A   Scattered Clouds
11:53 PM -29.0 °F -49.5 °F -35.0 °F 73% 30.03 in 10.0 mi SW 8.1 mph - N/A   Mostly Cloudy